Wind_Speed
96 96 96 95 95 95 95 95 95 94 94 94 94 94 95 95 95 96 96 96 96 96 96 96 96 96 96 95 95 95 95 94 94 94 94 93 92 92 92 91 91 91 91 90 90 91 91 91 91 92 92 92
100 100 99 99 99 98 98 98 98 98 97 97 97 97 97 97 97 97 97 97 97 97 96 96 96 96 96 96 96 95 95 95 95 95 94 94 93 92 92 91 92 91 90 89 89 90 90 90 90 90 90 91
103 103 103 103 103 102 102 101 101 100 100 100 100 100 100 100 99 99 99 99 99 98 98 97 97 96 96 96 96 95 95 95 95 95 95 94 93 93 92 92 93 93 91 89 90 90 91 90 90 90 90 91
107 107 106 106 106 106 105 105 104 104 103 103 103 103 103 103 103 102 102 102 102 101 101 100 99 98 98 97 96 96 95 95 95 95 95 94 93 93 92 92 93 94 92 90 90 91 91 91 91 91 91 92
110 110 110 110 109 109 108 108 108 107 107 106 106 106 106 106 106 105 105 105 105 105 104 103 103 102 101 100 99 98 98 97 97 96 96 95 94 94 93 93 94 95 94 93 92 92 92 93 93 93 93 93
113 113 113 113 112 112 112 111 111 111 110 110 110 109 109 109 108 108 108 108 108 108 107 106 106 105 104 103 103 102 101 100 99 99 98 97 97 96 95 95 96 97 96 95 95 94 94 94 94 94 95 95
113 114 115 115 115 115 115 115 115 114 114 114 114 113 113 112 112 111 110 110 110 110 110 109 109 109 108 107 106 105 105 104 103 102 101 100 100 99 98 97 98 98 98 98 97 96 96 96 96 96 96 96
106 108 110 112 113 114 115 116 116 116 116 116 116 116 116 116 116 115 114 113 112 112 112 112 112 112 111 110 110 109 108 107 106 105 104 103 102 102 101 101 101 100 100 100 100 99 98 98 98 98 98 98
96 98 100 102 104 106 108 110 111 113 114 115 115 116 117 118 118 118 117 116 115 114 114 113 113 113 113 113 112 112 111 110 109 108 107 106 105 104 103 103 102 102 102 102 102 102 101 101 101 100 100 100
89 90 91 93 95 97 99 101 103 105 106 108 109 111 113 114 115 116 116 116 116 116 116 115 114 113 113 113 113 113 113 113 113 111 110 109 108 106 106 105 103 103 103 103 103 103 103 104 103 103 102 102
86 86 87 88 89 91 92 94 96 97 99 100 102 103 105 107 108 110 111 112 113 113 114 114 114 114 113 112 112 111 112 112 113 113 112 112 111 110 109 108 106 106 106 105 105 104 105 105 105 104 104 104
88 88 87 87 87 88 88 90 91 92 94 95 97 98 99 100 102 103 105 106 107 107 109 111 111 112 113 112 111 110 110 109 109 110 111 111 111 111 111 110 109 108 108 107 107 106 106 106 106 106 105 105
92 92 91 90 90 89 89 89 89 90 91 92 94 95 96 96 97 99 100 101 103 103 104 107 108 108 109 110 110 110 109 109 108 107 108 109 109 109 109 109 109 108 108 108 108 107 107 107 107 106 106 106
97 96 96 95 94 94 93 92 91 91 91 91 92 93 94 94 95 96 97 98 101 101 101 103 104 104 105 106 107 108 108 109 109 108 107 107 107 108 108 107 107 107 107 107 107 107 107 107 107 106 106 106
101 100 100 100 99 98 98 97 96 95 94 93 93 93 93 94 94 95 96 97 98 99 99 100 101 101 102 104 104 105 105 107 108 108 107 107 107 107 107 107 106 106 106 106 106 106 106 106 106 105 106 105
106 105 104 104 103 103 102 102 101 100 99 98 97 96 96 95 95 95 96 96 97 98 98 98 100 100 101 101 102 103 103 105 106 106 106 106 106 107 107 107 106 106 106 106 106 106 106 106 106 106 106 105
111 110 109 109 108 107 107 106 106 105 105 104 102 101 100 99 98 97 97 98 98 99 98 98 99 100 100 100 101 102 103 103 104 104 105 104 104 105 106 106 106 106 106 106 107 107 106 107 107 107 107 107
115 114 114 113 113 112 112 111 110 110 110 109 108 107 106 105 103 102 100 101 101 100 100 99 99 99 100 100 101 102 103 103 103 103 103 103 103 104 105 106 106 105 106 106 106 106 106 107 107 107 108 107
119 119 118 117 117 117 116 116 115 114 114 114 113 112 111 110 109 107 105 104 105 104 103 101 100 100 101 101 102 103 103 103 103 102 103 103 102 103 104 105 105 105 106 106 106 106 107 107 108 108 108 108
120 121 121 121 120 120 120 120 119 119 119 118 118 117 116 115 114 113 111 109 109 109 107 105 103 102 103 103 103 103 104 104 103 103 103 103 102 103 104 105 105 105 105 106 107 107 108 108 109 109 109 109
120 121 122 123 123 123 123 123 122 122 122 122 122 122 121 120 119 118 117 114 113 113 112 110 108 106 105 106 106 105 105 105 105 104 104 103 103 104 105 105 105 105 106 107 108 108 109 109 109 109 109 109
120 121 122 123 124 124 124 124 124 124 124 125 125 125 125 125 124 123 122 120 118 117 117 115 113 111 109 109 109 108 107 106 106 106 105 104 103 104 106 107 107 106 107 108 108 108 109 109 109 109 109 109
117 119 121 122 124 124 125 125 126 125 126 126 126 126 127 127 127 127 126 125 124 122 121 120 119 116 114 113 112 112 111 109 108 107 106 105 104 105 106 108 108 108 108 109 109 109 109 110 110 108 108 108
111 113 116 119 121 123 124 125 126 126 127 127 128 128 128 129 129 130 130 129 128 127 125 124 123 122 120 118 117 116 115 113 112 111 110 109 108 107 107 107 108 107 107 107 109 109 109 109 109 108 108 108
107 109 111 113 116 118 121 123 125 126 127 128 128 129 129 130 131 131 131 132 131 131 130 128 127 127 125 123 122 120 119 118 117 116 114 113 112 110 109 108 108 108 107 107 108 108 109 109 108 109 109 109
106 108 109 111 113 115 117 119 122 124 125 127 128 129 130 131 131 132 132 133 133 133 133 132 131 130 129 128 127 125 123 122 122 121 119 117 116 114 113 112 111 111 109 108 108 109 110 109 108 108 109 107
105 106 108 109 111 113 115 117 119 121 123 125 127 128 130 130 131 132 133 133 134 134 134 134 133 132 132 132 131 129 127 126 126 125 124 122 120 119 118 117 116 114 112 111 111 112 112 110 109 109 109 108
103 104 105 107 109 111 113 114 116 118 120 122 125 127 128 129 130 131 132 133 134 134 135 134 134 133 133 133 133 132 130 129 128 128 128 127 125 124 122 121 120 118 117 116 115 115 115 113 112 111 111 111
101 101 102 104 106 108 110 111 113 115 117 120 122 124 126 127 129 129 131 132 133 134 134 135 135 134 133 134 134 134 133 131 129 129 130 130 129 128 127 125 125 124 122 120 119 118 118 117 115 114 115 116
98 98 98 100 101 103 104 106 108 110 113 115 118 121 123 124 126 128 129 130 131 132 133 133 134 134 134 134 134 134 134 133 131 130 130 131 132 131 130 130 130 128 126 125 123 122 122 121 120 119 120 120
97 96 96 97 97 97 98 100 101 104 107 110 113 116 119 120 122 124 126 128 130 131 131 131 132 133 134 134 134 134 134 134 132 131 130 131 133 134 133 133 132 130 129 128 127 126 126 126 125 124 124 124
Wind_Direction
259 259 259 258 258 258 257 257 257 256 256 255 254 254 253 253 253 252 252 252 252 252 252 253 253 253 253 252 252 252 252 252 252 251 251 251 251 251 251 252 252 252 252 252 253 253 253 254 254 254 255 255
260 260 260 259 259 258 258 257 257 257 256 256 256 255 255 254 253 253 252 252 252 252 252 252 252 252 253 253 252 252 252 252 252 252 252 252 252 252 252 252 252 252 251 252 252 253 253 253 253 254 254 255
261 261 260 260 259 259 259 258 258 257 257 257 257 256 256 255 255 254 254 253 252 252 252 251 252 252 252 252 252 252 252 252 252 252 252 252 252 252 252 252 252 252 251 251 251 252 253 253 253 254 254 255
261 261 260 260 260 260 259 259 259 258 258 257 257 257 257 256 256 256 255 255 254 253 253 252 252 252 252 252 252 252 252 252 252 252 252 252 252 251 251 251 251 251 251 250 250 251 252 252 253 253 254 255
261 261 261 260 260 260 259 259 259 259 258 258 258 257 257 257 257 257 256 256 256 255 255 254 254 253 252 252 252 252 252 252 252 252 252 252 252 251 251 251 251 251 251 251 250 250 251 252 253 253 254 255
261 261 261 261 260 260 259 259 259 258 258 258 258 257 257 257 257 257 257 257 257 256 256 256 255 255 254 253 253 252 252 252 252 252 252 252 252 252 252 251 251 251 252 252 251 251 251 252 253 253 254 255
262 262 262 261 261 260 260 259 259 258 258 258 258 257 257 257 257 257 256 257 257 257 257 257 256 256 255 255 254 253 253 253 252 252 252 252 253 253 252 252 252 253 253 253 253 252 252 252 253 253 254 255
264 263 262 262 262 261 261 260 260 259 258 258 258 258 257 257 257 256 256 256 256 256 257 257 257 256 256 256 255 255 254 254 254 253 253 253 253 253 253 253 253 254 254 255 255 254 254 254 254 254 254 255
265 264 263 263 262 262 261 261 260 260 259 258 258 258 257 257 257 256 256 256 256 256 256 256 256 256 256 256 256 256 255 255 254 254 254 253 253 253 253 253 254 254 254 255 255 256 256 255 255 255 255 255
265 264 264 263 263 262 262 261 260 260 259 259 258 258 257 257 257 256 256 256 256 255 255 255 255 255 256 256 256 256 256 256 255 255 254 254 254 254 253 253 253 253 254 254 255 255 256 256 256 256 256 256
265 265 264 263 263 262 261 261 260 260 259 259 258 257 257 257 256 256 255 255 255 255 255 254 254 254 254 254 255 255 255 256 256 255 255 255 254 254 254 254 253 253 253 253 253 254 254 255 255 256 255 255
266 265 265 264 263 262 261 261 260 260 259 259 258 258 257 256 256 256 255 255 254 253 254 254 253 253 253 252 252 253 253 254 254 255 255 254 254 254 254 253 253 253 253 253 253 253 253 254 254 254 254 254
266 266 265 264 264 263 262 261 260 260 259 258 258 258 257 256 256 255 255 255 254 253 252 253 253 252 252 252 251 251 251 251 251 251 252 252 252 252 252 253 252 252 253 253 253 253 253 253 253 254 254 254
265 265 265 264 264 263 263 262 261 261 260 259 258 258 257 257 256 255 255 254 254 254 252 252 252 252 251 251 251 251 250 250 250 249 249 250 250 250 250 251 251 251 251 252 252 252 253 253 253 253 254 254
264 263 263 263 263 263 263 262 262 261 260 259 259 258 258 257 256 256 255 254 254 254 253 253 253 252 251 251 251 250 250 250 250 249 249 249 249 249 249 249 249 249 250 250 250 251 251 252 252 252 253 253
263 262 262 262 262 262 262 262 262 261 260 260 259 259 258 257 257 256 256 255 254 254 253 253 253 252 252 251 251 250 250 249 249 249 249 249 249 249 249 249 249 248 249 249 249 250 250 250 251 251 251 252
262 262 261 261 260 260 260 260 261 260 260 260 259 259 258 258 257 257 256 256 255 254 254 253 252 253 252 251 251 251 250 249 249 249 249 248 248 248 249 249 249 249 249 249 249 249 250 250 250 250 250 251
262 261 261 260 259 259 259 259 259 259 259 259 259 258 258 257 257 257 256 256 256 255 255 253 253 253 252 252 251 251 251 250 250 249 249 249 248 248 249 249 249 249 249 249 249 249 249 249 250 250 251 251
262 261 261 260 259 258 258 258 257 257 257 258 258 258 258 257 257 257 256 255 256 256 255 255 253 253 253 252 252 251 251 251 251 250 250 249 249 248 249 249 249 249 249 249 249 249 249 249 249 250 251 251
260 260 260 260 259 258 258 257 257 256 256 256 256 257 257 257 257 257 256 255 255 256 255 255 254 253 253 253 253 252 252 252 251 251 250 250 249 249 249 249 249 248 249 249 249 249 249 249 249 250 251 251
259 259 259 259 259 258 258 257 256 256 256 255 255 255 256 256 256 256 256 256 255 255 255 255 254 253 253 253 253 253 252 252 252 252 251 250 250 249 249 249 249 249 249 249 249 249 250 250 250 250 251 252
258 258 258 258 258 258 258 257 257 256 256 255 255 255 255 255 255 255 256 256 255 255 255 255 255 254 253 253 253 253 253 252 252 252 252 251 250 250 250 250 249 249 249 249 250 250 250 251 251 251 252 252
258 258 257 257 257 257 257 257 257 257 256 256 255 255 255 254 254 254 254 255 255 254 254 255 255 254 253 253 253 253 253 253 252 253 253 252 251 250 250 250 250 249 250 250 251 251 251 252 252 252 252 252
258 257 257 256 256 256 256 256 256 256 256 255 255 255 255 254 254 254 254 254 254 254 254 254 254 254 254 253 253 252 253 253 252 252 252 252 252 251 250 250 251 250 250 251 251 251 252 252 253 253 253 252
257 256 255 255 254 254 254 254 254 254 254 254 254 254 254 254 254 253 253 253 253 253 253 253 253 253 253 253 252 252 252 252 252 252 252 252 252 251 251 251 251 251 251 250 251 251 252 252 252 252 252 252
256 255 254 253 253 252 252 252 252 252 252 252 252 252 252 252 252 253 253 253 253 253 253 252 252 252 252 252 252 252 251 251 252 252 252 252 252 251 251 251 251 251 251 251 251 251 251 251 251 252 252 252
258 256 255 254 253 252 252 251 251 251 250 250 250 250 250 250 250 251 251 251 252 252 252 252 252 252 252 252 252 251 251 250 251 251 252 252 251 251 251 251 251 251 251 251 250 251 251 251 251 251 252 252
261 259 257 256 255 253 252 252 251 251 250 250 250 249 249 249 249 249 249 250 250 251 251 252 252 251 251 251 252 252 251 250 250 250 251 251 251 251 251 251 251 251 250 250 250 251 251 251 251 251 252 252
263 262 260 258 257 255 254 253 252 252 251 251 250 250 249 249 249 248 248 249 249 249 250 250 251 251 251 251 251 252 251 251 250 249 250 250 251 251 251 251 251 251 250 250 250 250 251 251 251 251 252 252
269 267 265 263 261 259 257 256 254 253 253 252 252 251 250 249 249 249 248 248 248 249 249 249 249 250 251 250 250 251 251 251 251 250 249 250 250 250 250 250 250 250 250 250 250 250 251 251 251 251 251 252
272 270 269 267 265 263 261 259 257 256 254 253 253 252 252 250 249 249 249 248 248 249 249 248 248 249 249 250 250 250 250 251 251 250 250 249 249 250 250 250 249 249 249 249 250 250 250 251 251 251 251 251
Height
10621 10621 10623 10624 10625 10626 10627 10628 10629 10631 10632 10632 10633 10634 10635 10637 10638 10639 10641 10642 10644 10646 10648 10649 10651 10652 10654 10657 10659 10662 10664 10665 10667 10669 10671 10674 10676 10679 10681 10684 10685 10686 10690 10693 10695 10695 10696 10699 10700 10702 10704 10705
10608 10609 10610 10611 10613 10614 10615 10617 10618 10619 10621 10621 10622 10624 10625 10626 10628 10629 10630 10631 10633 10635 10636 10638 10640 10642 10644 10646 10649 10651 10653 10655 10657 10658 10661 10663 10666 10668 10671 10674 10673 10675 10680 10684 10684 10684 10686 10689 10690 10692 10694 10695
10594 10596 10598 10598 10600 10601 10603 10604 10606 10607 10609 10611 10611 10612 10613 10615 10617 10618 10619 10620 10622 10623 10625 10626 10628 10631 10633 10636 10638 10641 10643 10645 10646 10648 10650 10653 10655 10657 10660 10663 10662 10663 10669 10674 10675 10674 10675 10678 10680 10682 10684 10685
10581 10582 10584 10585 10587 10588 10590 10592 10593 10595 10596 10598 10599 10600 10601 10603 10605 10607 10608 10610 10611 10612 10614 10615 10617 10620 10623 10625 10627 10630 10632 10634 10636 10637 10639 10642 10645 10647 10650 10652 10651 10651 10656 10663 10666 10665 10665 10667 10670 10671 10673 10675
10569 10568 10569 10572 10574 10575 10577 10578 10580 10581 10583 10584 10586 10587 10589 10590 10593 10595 10597 10598 10599 10601 10602 10604 10606 10609 10611 10614 10616 10618 10620 10623 10625 10627 10629 10631 10634 10636 10639 10642 10640 10639 10645 10651 10655 10656 10656 10657 10660 10661 10663 10666
10556 10555 10555 10557 10560 10562 10563 10564 10566 10567 10569 10570 10572 10574 10575 10577 10579 10582 10584 10586 10587 10589 10591 10593 10595 10597 10599 10601 10603 10605 10608 10610 10613 10615 10618 10620 10623 10625 10629 10631 10628 10628 10634 10639 10642 10647 10648 10648 10650 10651 10653 10655
10541 10541 10542 10542 10544 10546 10547 10548 10550 10552 10554 10556 10557 10559 10561 10563 10564 10567 10570 10573 10574 10576 10579 10582 10583 10584 10587 10589 10591 10593 10595 10598 10600 10603 10606 10608 10611 10613 10617 10619 10617 10619 10623 10626 10630 10635 10637 10638 10640 10642 10643 10645
10526 10527 10528 10528 10528 10530 10531 10532 10534 10537 10539 10541 10543 10544 10546 10548 10550 10552 10556 10559 10561 10563 10566 10569 10570 10572 10574 10577 10579 10580 10582 10585 10587 10591 10593 10596 10598 10601 10605 10605 10607 10611 10612 10614 10618 10622 10625 10628 10629 10632 10634 10635
10512 10513 10514 10514 10515 10515 10516 10518 10519 10520 10523 10525 10527 10528 10530 10532 10535 10537 10541 10544 10547 10549 10551 10554 10556 10558 10561 10563 10567 10568 10570 10573 10575 10578 10581 10584 10586 10589 10592 10593 10596 10600 10600 10602 10606 10608 10612 10616 10618 10621 10623 10625
10500 10500 10500 10501 10501 10501 10502 10504 10505 10506 10507 10509 10511 10512 10514 10516 10519 10522 10525 10528 10531 10534 10536 10540 10542 10544 10547 10549 10553 10556 10558 10560 10563 10566 10568 10571 10574 10577 10579 10582 10585 10586 10588 10591 10593 10596 10599 10602 10606 10609 10612 10613
10489 10489 10489 10489 10489 10489 10490 10490 10492 10493 10493 10495 10496 10498 10500 10502 10504 10507 10510 10512 10516 10519 10519 10524 10527 10529 10532 10535 10539 10542 10545 10548 10550 10553 10556 10559 10562 10564 10566 10570 10573 10574 10575 10578 10581 10584 10586 10588 10591 10595 10598 10601
10478 10477 10478 10478 10477 10477 10478 10478 10479 10480 10481 10481 10482 10484 10486 10488 10490 10492 10495 10497 10501 10504 10504 10507 10512 10514 10516 10520 10524 10527 10531 10534 10538 10540 10543 10547 10550 10552 10553 10557 10561 10562 10563 10566 10569 10572 10574 10575 10577 10580 10583 10586
10466 10465 10465 10465 10466 10465 10466 10467 10467 10468 10469 10469 10470 10471 10473 10475 10477 10479 10481 10483 10485 10490 10492 10492 10497 10501 10503 10506 10509 10513 10517 10519 10523 10526 10529 10533 10538 10540 10542 10545 10549 10551 10553 10554 10557 10560 10562 10563 10565 10567 10569 10572
10453 10453 10452 10452 10453 10453 10453 10454 10455 10456 10457 10458 10459 10459 10461 10462 10464 10466 10469 10470 10470 10475 10480 10480 10483 10488 10489 10492 10496 10499 10503 10504 10507 10512 10515 10519 10523 10526 10530 10534 10537 10540 10542 10543 10545 10547 10550 10551 10554 10556 10557 10559
10440 10440 10440 10439 10439 10439 10440 10441 10442 10443 10444 10446 10446 10447 10449 10450 10451 10454 10455 10457 10458 10461 10466 10468 10470 10474 10476 10478 10482 10486 10489 10491 10494 10498 10503 10507 10509 10512 10516 10520 10524 10527 10529 10531 10532 10534 10536 10538 10542 10544 10545 10547
10425 10426 10426 10426 10426 10426 10426 10427 10428 10429 10430 10432 10433 10434 10436 10438 10439 10441 10443 10444 10446 10447 10452 10456 10457 10460 10463 10466 10469 10472 10475 10477 10481 10485 10490 10496 10498 10499 10502 10506 10511 10514 10516 10518 10519 10522 10524 10526 10529 10532 10533 10535
10409 10410 10411 10411 10412 10412 10412 10413 10414 10414 10415 10417 10419 10420 10422 10424 10426 10429 10431 10431 10432 10434 10438 10443 10444 10446 10450 10454 10455 10458 10461 10464 10468 10472 10476 10483 10487 10488 10490 10494 10498 10500 10504 10506 10507 10510 10512 10514 10516 10518 10521 10523
10391 10392 10394 10395 10396 10397 10398 10398 10399 10400 10400 10401 10403 10405 10407 10410 10412 10415 10418 10419 10418 10421 10425 10429 10433 10435 10437 10441 10442 10443 10446 10450 10455 10459 10463 10469 10475 10477 10477 10481 10485 10488 10490 10492 10494 10497 10500 10502 10504 10506 10509 10512
10373 10374 10375 10377 10378 10380 10381 10382 10384 10385 10386 10386 10387 10389 10391 10394 10397 10400 10404 10406 10405 10407 10411 10415 10421 10425 10425 10427 10429 10430 10433 10436 10441 10446 10450 10455 10461 10464 10464 10467 10472 10475 10476 10478 10481 10484 10486 10489 10491 10494 10497 10500
10356 10356 10356 10357 10359 10361 10363 10364 10366 10368 10370 10371 10371 10372 10375 10377 10381 10383 10387 10392 10393 10392 10396 10401 10407 10412 10412 10413 10415 10418 10421 10423 10427 10433 10437 10441 10446 10450 10452 10453 10457 10462 10464 10465 10468 10470 10472 10476 10478 10482 10485 10488
10338 10338 10338 10338 10340 10342 10344 10346 10348 10350 10352 10354 10355 10357 10358 10361 10364 10367 10370 10375 10378 10379 10380 10385 10391 10397 10399 10400 10402 10405 10408 10411 10414 10418 10422 10427 10433 10437 10438 10440 10443 10448 10450 10451 10453 10456 10459 10462 10465 10470 10473 10476
10320 10321 10321 10320 10321 10323 10325 10327 10329 10332 10335 10336 10337 10340 10343 10345 10347 10350 10352 10356 10361 10364 10366 10368 10373 10380 10385 10386 10388 10391 10394 10399 10401 10403 10408 10414 10420 10423 10424 10426 10429 10433 10436 10436 10439 10444 10447 10448 10452 10456 10460 10464
10303 10304 10303 10303 10304 10305 10306 10308 10310 10314 10317 10318 10319 10323 10326 10328 10329 10332 10335 10338 10343 10347 10351 10353 10356 10362 10367 10371 10374 10376 10379 10385 10388 10391 10395 10399 10404 10408 10409 10411 10414 10418 10422 10424 10427 10431 10433 10434 10437 10443 10447 10450
10283 10284 10284 10284 10285 10286 10287 10289 10291 10294 10297 10299 10301 10305 10309 10310 10311 10314 10316 10320 10324 10328 10333 10337 10340 10344 10349 10354 10358 10362 10365 10369 10374 10376 10379 10383 10387 10391 10395 10397 10400 10405 10410 10413 10414 10416 10420 10422 10426 10430 10432 10434
10260 10261 10262 10263 10264 10265 10266 10268 10270 10273 10276 10278 10281 10285 10289 10291 10292 10296 10299 10301 10305 10309 10314 10320 10324 10327 10330 10335 10340 10346 10351 10353 10356 10359 10363 10367 10371 10376 10381 10385 10388 10392 10395 10399 10401 10404 10407 10409 10412 10413 10415 10418
10239 10240 10241 10242 10243 10244 10245 10247 10249 10251 10254 10256 10260 10264 10267 10271 10274 10277 10281 10284 10286 10290 10294 10300 10306 10309 10313 10317 10321 10327 10334 10337 10339 10342 10347 10351 10356 10362 10367 10370 10373 10375 10380 10386 10390 10390 10389 10393 10398 10400 10402 10407
10220 10222 10223 10224 10225 10226 10227 10229 10230 10232 10234 10236 10238 10242 10245 10250 10255 10258 10262 10265 10268 10272 10276 10280 10286 10292 10295 10298 10301 10306 10315 10322 10324 10327 10330 10335 10340 10345 10349 10353 10357 10361 10367 10372 10374 10372 10374 10381 10385 10386 10390 10395
10201 10203 10205 10206 10206 10207 10209 10211 10213 10214 10216 10217 10218 10222 10225 10230 10236 10240 10242 10246 10250 10254 10257 10261 10266 10272 10277 10280 10282 10286 10294 10302 10308 10312 10314 10318 10323 10328 10333 10338 10342 10347 10352 10355 10357 10359 10362 10366 10369 10374 10380 10381
10182 10185 10187 10188 10188 10190 10192 10194 10198 10198 10199 10200 10200 10202 10207 10211 10215 10220 10224 10227 10231 10235 10239 10243 10248 10253 10258 10263 10266 10268 10273 10281 10289 10295 10299 10301 10305 10310 10316 10322 10325 10328 10333 10338 10343 10346 10347 10350 10357 10364 10366 10362
10164 10167 10169 10170 10170 10173 10175 10178 10181 10182 10182 10183 10184 10185 10188 10193 10197 10201 10206 10210 10212 10215 10221 10226 10231 10235 10239 10244 10248 10251 10254 10260 10268 10275 10282 10286 10288 10292 10298 10302 10304 10309 10317 10323 10327 10331 10334 10338 10343 10347 10346 10346
10145 10146 10149 10150 10151 10155 10158 10160 10163 10165 10164 10167 10168 10168 10170 10175 10180 10183 10188 10192 10194 10198 10203 10208 10213 10217 10221 10225 10230 10234 10237 10242 10248 10254 10263 10268 10270 10272 10277 10280 10284 10294 10302 10305 10310 10317 10321 10321 10323 10328 10331 10334